STARLINK-38087, 69743

Orbit data source: Space-Track

STARLINK-38087, 69743 is a payload satellite owned by SpaceX/Seattle (US) in SSO that was launched on Thu, 02 Jul 2026 UTC via an FALCON 9 launch vehicle from the Air Force Western Test Range (AFWTR). Payload-class satellites include a variety of spacecraft equipped with specific instruments for various scientific and technological missions. These include communications satellites like Starlink; space stations such as the ISS; scientific satellites like the Hubble; Earth observation satellites from companies like Planet Labs, Umbra, and HawkEye 360; GPS; miniature CubeSats for education and research; and military/defense satellites.

Loading next visibility...
Identifier
69743, 2026-150E
Orbit
SSO
Country
Flag of USUS
Related business
Manufacturer
SpaceX/Seattle
Mission
Operational spacecraft
Bus & Motor
STARLINK V2MO, Unknown motor
Mass
575 kg wet, ~530 kg dry
Launch date (UTC)
2026-07-02 (3 weeks ago)
Launch vehicle
FALCON 9
Launch site
Air Force Western Test Range (AFWTR)
Object type
Payload
Rocket body
Debris
Shape & HBR
Unknown shape, 17.7 m
Radar Cross Section
Large (>1 m²)

Expand to show TLE details & history
Last TLE update: 17 hours ago

TLE from 17 hours ago
0 STARLINK-38087
1 69743U 26150E   26202.48948548  .00300693  00000-0  19370-2 0  9998
2 69743  97.2855  41.1862 0000889 110.5466 249.5895 15.75305582  4318
Epoch: 2026-07-21T11:44Z
TLE epoch observation values (Epoch: 2026-07-21T11:44:51.545Z)
Latitude
0.00001°
Longitude
-74.28701°
Altitude
347.139 km
Speed
7.7 km/s
True Right ascension
02h 44m 44s
True Declination
0° 00' 00"
Sunlit
Object was in daylight at epoch
Visualization orbit readout
Latitude
Unknown
Longitude
Unknown
Altitude
Unknown
Speed
Unknown
Apparent Right ascension
Unknown
Apparent Declination
Unknown
Sunlit
N/A
Visualization observer readout
Local Sidereal Time
17:44:19
Azimuth
Unknown
Elevation
Unknown
Doppler factor
Unknown
Orbital elements
Apogee altitude
341.246 km
Perigee altitude
340.052 km
Semi-major axis
6,718.786 km
Eccentricity
0.00009
Inclination
97.2855°
RAAN
41.1862°
Arg. of periapsis
110.5466°
True anomaly
249.57995°
Mean anomaly
249.5895°
Eccentric anomaly
249.58473°
Mean motion
3.941 °/min
Orbital period
91.35 mins
BSTAR
0.001937
Loading maneuver chart data...
Computing Atmospheric mass density...
Loading historical data...
Loading historical data...
Loading historical data...
Loading historical data...
Loading historical data...
Loading historical data...
Loading historical data...

Documentation

Showing up to 5 results
|